Back to catalog

STARLINK-35368

AliveCommunicationsVLEO
NORAD 65830·PAYLOAD·🇺🇸 United States

Launched Sep 29, 2025 from Vandenberg Space Force Base

Loading…

Next Passes (next 24 hours)

TLE

FreshSource: CelesTrak SupGP

Epoch: Sep 14, 2026, 20:50 UTC

1 65830C 25221H   26257.86854167  .00020716  00000+0  61238-3 0  2576
2 65830  53.1570 288.0895 0001104  82.5783 120.6975 15.34363861    15

Track STARLINK-35368 in real time with AllMySat

Download on the App Store